Dati Storici

Data ora Umidita' aria (%) Temperatura aria (°C) Rad globale (W/m²) Gonioanemometro (°) Tacoanemometro (m/s) Pioggia (mm)
17-06-2020 23:30 92.1 % 20.034 -68.436 0.353 0 0
17-06-2020 23:20 90.6 % 19.888 -70.673 -0.013 0 0
17-06-2020 23:10 92.9 % 20.15 -65.171 -0.015 0 0
17-06-2020 23:00 96.6 % 19.865 -52.909 0.143 0 0
17-06-2020 22:50 96.9 % 19.976 -51.782 -0.015 0 0
17-06-2020 22:40 97.6 % 20.152 -45.483 -0.013 0 0
17-06-2020 22:30 97.6 % 20.363 -63.146 -0.013 0 0
17-06-2020 22:20 97.6 % 20.239 -58.268 -0.014 0 0
17-06-2020 22:10 97.6 % 20.192 -74.561 -0.014 0 0
17-06-2020 22:00 95.6 % 20.058 -66.782 -0.013 0 0
17-06-2020 21:50 93.3 % 20.263 -71.405 -0.011 0 0
17-06-2020 21:40 89.2 % 20.41 -67.236 0.341 0 0
17-06-2020 21:30 85.1 % 20.731 -74.156 -0.012 0 0
17-06-2020 21:20 82.6 % 20.8 -78.441 -0.013 0 0
17-06-2020 21:10 81.3 % 20.84 -66.111 1.245 0 0
17-06-2020 21:00 80.2 % 20.997 -66.412 -0.01 0 0
17-06-2020 20:50 79.9 % 21.106 -74.356 -0.011 0 0
17-06-2020 20:40 78.4 % 21.282 -64.187 0.594 0 0
17-06-2020 20:30 76.4 % 21.059 -62.354 -0.011 0 0
17-06-2020 20:20 75.4 % 21.184 -73.071 -0.01 0 0

I dati sono presentati in modo automatico a scopo informativo. In seguito a verifica i dati possono subire modifiche o essere invalidati e non riportati negli archivi definitivi.